Hazen, ND

6:02 PM CDT on August 24, 2016 (GMT -0500)
Mercer County Regional

Weather History for KHZE - May, 2014

Change the Weather History Date:

Thursday, May 15, 2014

  Actual Average (KN60) Record (KN60)
Temperature  
Mean Temperature 40 °F -  
Max Temperature 62 °F - 77 °F (2013)
Min Temperature 19 °F - 26 °F (2014)
Degree Days  
Heating Degree Days 24    
Cooling Degree Days 0    
Moisture  
Dew Point 20 °F    
Average Humidity 48    
Maximum Humidity 93    
Minimum Humidity 17    
Precipitation  
Precipitation 0.00 in - 0.34 in (1999)
Month to date precipitation  
Year to date precipitation  
Sea Level Pressure  
Sea Level Pressure 30.20 in    
Wind  
Wind Speed 2 mph (East)    
Max Wind Speed 14 mph    
Max Gust Speed -    
Visibility 10 miles    
Events      
T = Trace of Precipitation, MM = Missing Value Source: NWS Daily Summary

Daily Weather History Graph

Daily Weather History Graph

Search for Another Location

Airport or City:

Trip Planner

Search our weather history database for the weather conditions in past years. The results will help you decide how hot, cold, wet, or windy it might be!

Date:

Astronomy

May. 15, 2014 Rise Set
Actual Time 6:09 AM CDT 9:16 PM CDT
Civil Twilight 5:33 AM CDT 9:52 PM CDT
Nautical Twilight 4:46 AM CDT 10:39 PM CDT
Astronomical Twilight 3:48 AM CDT 11:38 PM CDT
Moon 10:25 PM CDT (5/15) 6:59 AM CDT (5/15)
Length of Visible Light 16h 19m
Length of Day
15h 06m
Full, 99% of the Moon is Illuminated
May 15
Full
May 21
Last Quarter
May 28
New
Jun 5
First Quarter
Jun 12
Full

Hourly Weather History & Observations

Time (CDT) Temp. Windchill Dew Point Humidity Pressure Visibility Wind Dir Wind Speed Gust Speed Precip Events Conditions
12:15 AM 26.6 °F - 19.4 °F 74% 30.31 in 10.0 mi Calm Calm - N/A   Clear
12:35 AM 26.6 °F - 19.4 °F 74% 30.31 in 10.0 mi Calm Calm - N/A   Partly Cloudy
12:55 AM 26.6 °F - 19.4 °F 74% 30.31 in 10.0 mi Calm Calm - N/A   Partly Cloudy
1:15 AM 26.6 °F - 19.4 °F 74% 30.31 in 10.0 mi Calm Calm - N/A   Partly Cloudy
1:35 AM 24.8 °F - 17.6 °F 74% 30.31 in 10.0 mi Calm Calm - N/A   Partly Cloudy
1:55 AM 24.8 °F - 19.4 °F 80% 30.31 in 10.0 mi Calm Calm - N/A   Partly Cloudy
2:15 AM 24.8 °F - 17.6 °F 74% 30.31 in 10.0 mi Calm Calm - N/A   Partly Cloudy
2:35 AM 23.0 °F - 19.4 °F 86% 30.30 in 10.0 mi Calm Calm - N/A   Partly Cloudy
2:55 AM 23.0 °F - 19.4 °F 86% 30.30 in 10.0 mi Calm Calm - N/A   Partly Cloudy
3:15 AM 23.0 °F 18.4 °F 19.4 °F 86% 30.30 in 10.0 mi NW 3.5 mph - N/A   Clear
3:35 AM 24.8 °F 20.5 °F 19.4 °F 80% 30.30 in 10.0 mi North 3.5 mph - N/A   Partly Cloudy
3:55 AM 24.8 °F - 19.4 °F 80% 30.30 in 10.0 mi Calm Calm - N/A   Partly Cloudy
4:15 AM 24.8 °F - 19.4 °F 80% 30.30 in 10.0 mi Calm Calm - N/A   Partly Cloudy
4:35 AM 23.0 °F - 17.6 °F 80% 30.30 in 10.0 mi Calm Calm - N/A   Clear
4:55 AM 23.0 °F - 17.6 °F 80% 30.30 in 10.0 mi Calm Calm - N/A   Clear
5:15 AM 19.4 °F - 15.8 °F 86% 30.30 in 10.0 mi Calm Calm - N/A   Clear
5:35 AM 19.4 °F - 17.6 °F 93% 30.29 in 10.0 mi Calm Calm - N/A   Clear
5:55 AM 23.0 °F - 19.4 °F 86% 30.29 in 10.0 mi Calm Calm - N/A   Clear
6:15 AM 21.2 °F - 17.6 °F 86% 30.29 in 9.0 mi Calm Calm - N/A   Clear
6:55 AM 23.0 °F - 19.4 °F 86% 30.29 in 10.0 mi Calm Calm - N/A   Clear
7:15 AM 24.8 °F - 21.2 °F 86% 30.28 in 10.0 mi Calm Calm - N/A   Clear
7:35 AM 28.4 °F - 23.0 °F 80% 30.29 in 10.0 mi Calm Calm - N/A   Clear
7:55 AM 28.4 °F - 24.8 °F 86% 30.28 in 10.0 mi Calm Calm - N/A   Clear
8:15 AM 32.0 °F - 24.8 °F 75% 30.28 in 10.0 mi Calm Calm - N/A   Clear
8:35 AM 35.6 °F 32.8 °F 26.6 °F 70% 30.28 in 10.0 mi NNE 3.5 mph - N/A   Clear
8:55 AM 37.4 °F - 26.6 °F 65% 30.28 in 10.0 mi Calm Calm - N/A   Clear
9:15 AM 41.0 °F - 26.6 °F 57% 30.27 in 10.0 mi Calm Calm - N/A   Clear
9:35 AM 44.6 °F - 28.4 °F 53% 30.27 in 10.0 mi Calm Calm - N/A   Clear
9:55 AM 46.4 °F - 24.8 °F 43% 30.26 in 10.0 mi Calm Calm - N/A   Clear
10:15 AM 50.0 °F - 19.4 °F 30% 30.25 in 10.0 mi SSW 4.6 mph - N/A   Clear
10:35 AM 50.0 °F - 19.4 °F 30% 30.24 in 10.0 mi SSE 6.9 mph - N/A   Clear
10:55 AM 51.8 °F - 19.4 °F 28% 30.24 in 10.0 mi Calm Calm - N/A   Clear
11:15 AM 51.8 °F - 19.4 °F 28% 30.24 in 10.0 mi SSE 5.8 mph - N/A   Clear
11:35 AM 51.8 °F - 17.6 °F 26% 30.23 in 10.0 mi WSW 3.5 mph - N/A   Clear
11:55 AM 53.6 °F - 17.6 °F 24% 30.23 in 10.0 mi Calm Calm - N/A   Clear
12:15 PM 53.6 °F - 19.4 °F 26% 30.22 in 10.0 mi East 3.5 mph - N/A   Clear
12:35 PM 55.4 °F - 19.4 °F 25% 30.22 in 10.0 mi North 3.5 mph - N/A   Clear
12:55 PM 55.4 °F - 19.4 °F 25% 30.21 in 10.0 mi WSW 5.8 mph - N/A   Clear
1:15 PM 55.4 °F - 17.6 °F 23% 30.21 in 10.0 mi Calm Calm - N/A   Clear
1:55 PM 57.2 °F - 19.4 °F 23% 30.19 in 10.0 mi North 4.6 mph - N/A   Clear
2:15 PM 57.2 °F - 19.4 °F 23% 30.18 in 10.0 mi NNE 5.8 mph - N/A   Clear
2:35 PM 57.2 °F - 19.4 °F 23% 30.17 in 10.0 mi Calm Calm - N/A   Clear
2:55 PM 59.0 °F - 21.2 °F 23% 30.17 in 10.0 mi SSE 5.8 mph - N/A   Clear
3:15 PM 59.0 °F - 17.6 °F 20% 30.16 in 10.0 mi WSW 5.8 mph - N/A   Clear
3:35 PM 60.8 °F - 17.6 °F 19% 30.15 in 10.0 mi NNW 9.2 mph - N/A   Clear
3:55 PM 59.0 °F - 15.8 °F 19% 30.14 in 10.0 mi North 5.8 mph - N/A   Clear
4:15 PM 60.8 °F - 15.8 °F 17% 30.13 in 10.0 mi Calm Calm - N/A   Clear
4:35 PM 62.6 °F - 17.6 °F 18% 30.12 in 10.0 mi NE 6.9 mph - N/A   Clear
4:55 PM 62.6 °F - 17.6 °F 18% 30.11 in 10.0 mi North 10.4 mph - N/A   Clear
5:15 PM 60.8 °F - 17.6 °F 19% 30.11 in 10.0 mi NNE 4.6 mph - N/A   Clear
5:35 PM 60.8 °F - 15.8 °F 17% 30.10 in 10.0 mi WSW 3.5 mph - N/A   Clear
5:55 PM 59.0 °F - 17.6 °F 20% 30.10 in 10.0 mi East 4.6 mph - N/A   Clear
6:15 PM 60.8 °F - 17.6 °F 19% 30.09 in 10.0 mi East 3.5 mph - N/A   Clear
6:35 PM 60.8 °F - 19.4 °F 20% 30.09 in 10.0 mi ENE 9.2 mph - N/A   Clear
6:55 PM 59.0 °F - 19.4 °F 22% 30.09 in 10.0 mi ENE 6.9 mph - N/A   Clear
7:15 PM 57.2 °F - 21.2 °F 25% 30.08 in 10.0 mi East 5.8 mph - N/A   Clear
7:35 PM 55.4 °F - 23.0 °F 29% 30.08 in 10.0 mi East 5.8 mph - N/A   Clear
7:55 PM 53.6 °F - 23.0 °F 30% 30.08 in 10.0 mi East 6.9 mph - N/A   Clear
8:15 PM 55.4 °F - 23.0 °F 29% 30.07 in 10.0 mi East 6.9 mph - N/A   Clear
8:35 PM 53.6 °F - 21.2 °F 28% 30.07 in 10.0 mi ESE 8.1 mph - N/A   Clear
8:55 PM 50.0 °F - 23.0 °F 35% 30.07 in 10.0 mi ESE 8.1 mph - N/A   Clear
9:15 PM 50.0 °F - 21.2 °F 32% 30.06 in 10.0 mi ESE 10.4 mph - N/A   Clear
9:35 PM 48.2 °F - 21.2 °F 34% 30.06 in 10.0 mi ESE 6.9 mph - N/A   Clear
9:55 PM 44.6 °F 40.7 °F 23.0 °F 43% 30.07 in 10.0 mi SE 6.9 mph - N/A   Clear
10:15 PM 42.8 °F 37.5 °F 23.0 °F 46% 30.07 in 10.0 mi ESE 9.2 mph - N/A   Partly Cloudy
10:35 PM 44.6 °F 40.2 °F 21.2 °F 39% 30.07 in 7.0 mi ESE 8.1 mph - N/A   Partly Cloudy
10:55 PM 44.6 °F 39.7 °F 23.0 °F 43% 30.07 in 9.0 mi SE 9.2 mph - N/A   Scattered Clouds
11:15 PM 44.6 °F 39.2 °F 23.0 °F 43% 30.07 in 10.0 mi SE 10.4 mph - N/A   Partly Cloudy
11:35 PM 46.4 °F 41.9 °F 24.8 °F 43% 30.06 in 7.0 mi SE 9.2 mph - N/A   Clear
11:55 PM 48.2 °F - 23.0 °F 37% 30.06 in 10.0 mi SSE 13.8 mph - N/A   Clear